Farmville, Virginia, United States (23901)
Lat: 37.30N, Lon: 78.39W
Wx Zone: VAZ060
Local Info
Past Weather Observations for Today

NOTE: This archive is for the closest National Weather Service station to Farmville. Information may differ from the station used for current weather conditions.

Click here for Long-term Archive

Time Weather Temperature Dewpoint Humidity Pressure Winds Precip Visibility
09:35
Overcast
77°F / 25°C 73°F / 23°C 89% 30.15 in
(1021 mb)
NE 5.8 mph
(NE 9 kph)
- 10SM
09:15
Overcast
75°F / 24°C 73°F / 23°C 94% 30.15 in
(1021 mb)
NE 3.5 mph
(NE 6 kph)
- 10SM
08:55
Overcast
75°F / 24°C 73°F / 23°C 94% 30.12 in
(1020 mb)
NE 4.6 mph
(NE 7 kph)
- 10SM
08:35
Overcast
75°F / 24°C 73°F / 23°C 94% 30.12 in
(1020 mb)
E 5.8 mph
(E 9 kph)
- 10SM
08:15
Overcast
75°F / 24°C 73°F / 23°C 94% 30.12 in
(1020 mb)
ENE 4.6 mph
(ENE 7 kph)
- 10SM
07:55
Overcast
73°F / 23°C 73°F / 23°C 100% 30.12 in
(1020 mb)
NE 4.6 mph
(NE 7 kph)
- 7SM
07:35
Overcast
Fog And Mist
72°F / 22°C 72°F / 22°C 100% 30.12 in
(1020 mb)
Calm - 3/4SM
07:15
Overcast
Fog And Mist
70°F / 21°C 70°F / 21°C 100% 30.12 in
(1020 mb)
NNE 3.5 mph
(NNE 6 kph)
- 3/4SM
06:55
Overcast
Fog And Mist
72°F / 22°C 72°F / 22°C 100% 30.12 in
(1020 mb)
Calm - 2SM
06:35
Overcast
Fog And Mist
70°F / 21°C 70°F / 21°C 100% 30.12 in
(1020 mb)
NNE 4.6 mph
(NNE 7 kph)
- 5SM
06:15
Overcast
70°F / 21°C 70°F / 21°C 100% 30.09 in
(1019 mb)
Calm - 7SM
05:55
Overcast
Fog And Mist
68°F / 20°C 68°F / 20°C 100% 30.09 in
(1019 mb)
Calm - 5SM
05:35
Mostly Cloudy
Fog And Mist
66°F / 19°C 66°F / 19°C 100% 30.09 in
(1019 mb)
Calm - 4SM
05:15
Clear
Fog And Mist
66°F / 19°C 66°F / 19°C 100% 30.09 in
(1019 mb)
Calm - 3SM
04:55
Partly Cloudy
Fog And Mist
66°F / 19°C 66°F / 19°C 100% 30.09 in
(1019 mb)
Calm - 4SM
04:35
Clear
68°F / 20°C 68°F / 20°C 100% 30.06 in
(1018 mb)
Calm - 7SM
04:15
Partly Cloudy
68°F / 20°C 68°F / 20°C 100% 30.06 in
(1018 mb)
Calm - 7SM
03:55
Partly Cloudy
66°F / 19°C 66°F / 19°C 100% 30.06 in
(1018 mb)
Calm - 7SM
03:35
Clear
66°F / 19°C 66°F / 19°C 100% 30.06 in
(1018 mb)
Calm - 7SM
03:15
Clear
66°F / 19°C 66°F / 19°C 100% 30.06 in
(1018 mb)
S 4.6 mph
(S 7 kph)
- 7SM
02:55
Clear
68°F / 20°C 68°F / 20°C 100% 30.04 in
(1017 mb)
Calm - 10SM
02:35
Clear
68°F / 20°C 68°F / 20°C 100% 30.04 in
(1017 mb)
Calm - 7SM
02:15
Clear
68°F / 20°C 68°F / 20°C 100% 30.04 in
(1017 mb)
N 3.5 mph
(N 6 kph)
- 7SM
01:55
Clear
Fog And Mist
66°F / 19°C 66°F / 19°C 100% 30.06 in
(1018 mb)
Calm - 5SM
01:35
Clear
68°F / 20°C 68°F / 20°C 100% 30.06 in
(1018 mb)
Calm - 7SM
01:15
Clear
68°F / 20°C 68°F / 20°C 100% 30.04 in
(1017 mb)
Calm - 10SM
00:55
Clear
70°F / 21°C 70°F / 21°C 100% 30.04 in
(1017 mb)
Calm - 10SM
00:35
Clear
68°F / 20°C 68°F / 20°C 100% 30.04 in
(1017 mb)
SW 3.5 mph
(SW 6 kph)
- 10SM
00:15
Clear
68°F / 20°C 68°F / 20°C 100% 30.04 in
(1017 mb)
Calm - 10SM
Time Weather Temperature Dewpoint Humidity Pressure Winds Precip Visibility


Weather for websites

WeatherForYou.com, LLC is not responsible for any damages or problems caused by this service. Current weather conditions are obtained from the closest station including government and personal stations which may have varying degrees of accuracy. Weather forecasts are derived from the NOAA NDFD. Like all things, this site belongs to Jesus Christ... He just trusts us to maintain it. If you have any questions or comments email webmaster@weatherforyou.com

Copyright © 2015, WeatherForYou.com LLC. All rights reserved.